Baraboo, WI

2:00 PM CST on November 20, 2017 (GMT -0600)
Baraboo Wisconsin Dells

Weather History for KDLL - January, 2014

Change the Weather History Date:

Saturday, January 25, 2014

  Actual Average Record
Temperature  
Mean Temperature 16 °F -  
Max Temperature 30 °F 26 °F 55 °F (1973)
Min Temperature 2 °F 5 °F -24 °F (1963)
Degree Days  
Heating Degree Days 49    
Moisture  
Dew Point -5 °F    
Average Humidity 48    
Maximum Humidity 81    
Minimum Humidity 31    
Precipitation  
Precipitation 0.00 in - - ()
Sea Level Pressure  
Sea Level Pressure 29.64 in    
Wind  
Wind Speed 15 mph (WNW)    
Max Wind Speed 21 mph    
Max Gust Speed 34 mph    
Visibility 10 miles    
Events      
Averages and records for this station are not official NWS values.
T = Trace of Precipitation, MM = Missing Value Source: NWS Daily Summary

Daily Weather History Graph

Daily Weather History Graph

Search for Another Location

Airport or City:

Trip Planner

Search our weather history database for the weather conditions in past years. The results will help you decide how hot, cold, wet, or windy it might be!

Date:

Astronomy

Jan. 25, 2014 Rise Set
Actual Time 7:22 AM CST 5:01 PM CST
Civil Twilight 6:51 AM CST 5:32 PM CST
Nautical Twilight 6:16 AM CST 6:06 PM CST
Astronomical Twilight 5:42 AM CST 6:40 PM CST
Moon 1:53 AM CST (1/25) 12:02 PM CST (1/25)
Length of Visible Light 10h 40m
Length of Day
9h 39m
Waning Crescent, 34% of the Moon is Illuminated
Jan 25
Waning Crescent
Jan 30
New
Feb 6
First Quarter
Feb 14
Full
Feb 22
Last Quarter

Hourly Weather History & Observations

Time (CST) Temp. Windchill Dew Point Humidity Pressure Visibility Wind Dir Wind Speed Gust Speed Precip Events Conditions
12:15 AM 30.7 °F 18.1 °F 25.5 °F 81% 29.37 in 7.0 mi NW 20.7 mph 26.5 mph N/A   Overcast
12:35 AM 30.7 °F 20.0 °F 23.0 °F 73% 29.38 in 7.0 mi NW 15.0 mph 25.3 mph N/A   Overcast
12:55 AM 29.7 °F 19.1 °F 19.9 °F 67% 29.38 in 7.0 mi NW 13.8 mph 24.2 mph N/A   Mostly Cloudy
1:15 AM 29.3 °F 17.3 °F 18.7 °F 65% 29.38 in 10.0 mi NW 17.3 mph 25.3 mph N/A   Overcast
1:35 AM 29.3 °F 19.1 °F 17.8 °F 62% 29.39 in 10.0 mi WNW 12.7 mph 20.7 mph N/A   Overcast
1:55 AM 28.8 °F 17.9 °F 18.0 °F 64% 29.39 in 10.0 mi WNW 13.8 mph 20.7 mph N/A   Scattered Clouds
2:15 AM 28.4 °F 17.0 °F 17.1 °F 63% 29.39 in 10.0 mi WNW 15.0 mph 23.0 mph N/A   Scattered Clouds
2:35 AM 27.5 °F 13.9 °F 14.4 °F 58% 29.40 in 5.0 mi WNW 20.7 mph 28.8 mph N/A   Haze
3:15 AM 25.0 °F 11.7 °F -0.0 °F 34% 29.41 in 10.0 mi WNW 17.3 mph 25.3 mph N/A   Clear
4:15 AM 21.4 °F 7.1 °F -4.7 °F 32% 29.45 in 5.0 mi WNW 17.3 mph 31.1 mph N/A   Haze
4:35 AM 20.1 °F 4.6 °F -6.3 °F 31% 29.45 in 10.0 mi NW 19.6 mph 25.3 mph N/A   Clear
4:55 AM 19.4 °F 5.5 °F -3.8 °F 36% 29.46 in 10.0 mi NW 15.0 mph 24.2 mph N/A   Clear
5:15 AM 18.3 °F 2.6 °F -2.6 °F 40% 29.48 in 10.0 mi NNW 18.4 mph 32.2 mph N/A   Clear
5:35 AM 17.1 °F 2.5 °F -1.8 °F 43% 29.49 in 10.0 mi NW 15.0 mph 29.9 mph N/A   Clear
5:55 AM 16.2 °F 1.9 °F -1.8 °F 45% 29.50 in 10.0 mi NNW 13.8 mph 20.7 mph N/A   Clear
6:15 AM 14.9 °F 0.9 °F -4.7 °F 42% 29.51 in 10.0 mi NW 12.7 mph 21.9 mph N/A   Clear
6:35 AM 13.6 °F -2.4 °F -7.1 °F 39% 29.52 in 10.0 mi NNW 16.1 mph 28.8 mph N/A   Clear
6:55 AM 11.8 °F -5.3 °F -8.5 °F 40% 29.55 in 10.0 mi NW 17.3 mph 29.9 mph N/A   Clear
7:15 AM 10.2 °F -7.4 °F -8.7 °F 42% 29.57 in 10.0 mi NNW 17.3 mph 26.5 mph N/A   Clear
7:35 AM 9.5 °F -7.2 °F -8.7 °F 44% 29.59 in 10.0 mi NW 15.0 mph 26.5 mph N/A   Clear
7:55 AM 8.6 °F -11.0 °F -9.6 °F 44% 29.61 in 10.0 mi NW 20.7 mph 34.5 mph N/A   Clear
8:15 AM 8.2 °F -11.0 °F -9.6 °F 44% 29.62 in 10.0 mi NNW 19.6 mph 27.6 mph N/A   Clear
8:35 AM 8.2 °F -7.5 °F -8.9 °F 46% 29.63 in 10.0 mi NW 12.7 mph 20.7 mph N/A   Clear
8:55 AM 7.7 °F -10.7 °F -9.0 °F 47% 29.64 in 10.0 mi NNW 17.3 mph 25.3 mph N/A   Clear
9:15 AM 7.3 °F -11.7 °F -10.1 °F 45% 29.66 in 10.0 mi NW 18.4 mph 31.1 mph N/A   Clear
9:35 AM 7.2 °F -10.2 °F -10.1 °F 45% 29.67 in 10.0 mi NW 15.0 mph 26.5 mph N/A   Clear
9:55 AM 6.8 °F -12.4 °F -11.4 °F 43% 29.68 in 10.0 mi NW 18.4 mph 27.6 mph N/A   Clear
10:15 AM 7.2 °F -10.2 °F -11.4 °F 43% 29.69 in 10.0 mi NNW 15.0 mph 26.5 mph N/A   Clear
10:35 AM 8.1 °F -11.2 °F -11.0 °F 42% 29.69 in 10.0 mi NW 19.6 mph 29.9 mph N/A   Clear
10:55 AM 7.7 °F -10.7 °F -11.9 °F 41% 29.70 in 10.0 mi NW 17.3 mph 26.5 mph N/A   Clear
11:15 AM 8.2 °F -9.4 °F -11.6 °F 40% 29.70 in 10.0 mi NW 16.1 mph 28.8 mph N/A   Clear
11:35 AM 8.4 °F -8.6 °F -10.7 °F 42% 29.70 in 10.0 mi WNW 15.0 mph 23.0 mph N/A   Clear
11:55 AM 8.6 °F -7.0 °F -11.2 °F 40% 29.71 in 10.0 mi WNW 12.7 mph 24.2 mph N/A   Clear
12:15 PM 9.1 °F -8.2 °F -10.1 °F 41% 29.71 in 10.0 mi WNW 16.1 mph 24.2 mph N/A   Clear
12:35 PM 9.1 °F -7.0 °F -10.1 °F 41% 29.71 in 10.0 mi NW 13.8 mph 28.8 mph N/A   Clear
12:55 PM 9.5 °F -9.3 °F -9.8 °F 42% 29.70 in 10.0 mi WNW 19.6 mph 23.0 mph N/A   Clear
1:15 PM 9.1 °F -8.2 °F -10.5 °F 41% 29.70 in 10.0 mi NW 16.1 mph 26.5 mph N/A   Clear
1:35 PM 9.5 °F -8.8 °F -9.9 °F 41% 29.70 in 10.0 mi NW 18.4 mph 27.6 mph N/A   Clear
1:55 PM 10.0 °F -8.6 °F -9.0 °F 42% 29.71 in 10.0 mi WNW 19.6 mph 24.2 mph N/A   Clear
2:15 PM 9.5 °F -8.8 °F -8.9 °F 43% 29.72 in 10.0 mi WNW 18.4 mph 27.6 mph N/A   Clear
2:35 PM 9.5 °F -7.8 °F -10.1 °F 41% 29.72 in 10.0 mi NW 16.1 mph 24.2 mph N/A   Clear
2:55 PM 9.9 °F -7.3 °F -9.9 °F 41% 29.72 in 10.0 mi WNW 16.1 mph 24.2 mph N/A   Clear
3:15 PM 9.3 °F -8.6 °F -10.7 °F 40% 29.72 in 10.0 mi WNW 17.3 mph 31.1 mph N/A   Clear
3:35 PM 9.5 °F -4.4 °F -10.1 °F 41% 29.73 in 10.0 mi WNW 10.4 mph 21.9 mph N/A   Clear
3:55 PM 9.5 °F -5.2 °F -10.3 °F 40% 29.74 in 10.0 mi WNW 11.5 mph 20.7 mph N/A   Clear
4:15 PM 9.5 °F -5.2 °F -10.5 °F 40% 29.74 in 10.0 mi WNW 11.5 mph 20.7 mph N/A   Clear
4:35 PM 8.6 °F -6.3 °F -10.7 °F 41% 29.74 in 10.0 mi WNW 11.5 mph - N/A   Clear
4:55 PM 7.7 °F -8.2 °F -11.0 °F 42% 29.75 in 10.0 mi WNW 12.7 mph - N/A   Clear
5:15 PM 6.8 °F -6.9 °F -10.5 °F 45% 29.76 in 10.0 mi WNW 9.2 mph - N/A   Clear
5:35 PM 6.4 °F -8.2 °F -10.5 °F 46% 29.77 in 10.0 mi WNW 10.4 mph 18.4 mph N/A   Clear
5:55 PM 5.9 °F -8.9 °F -10.7 °F 47% 29.78 in 10.0 mi West 10.4 mph 17.3 mph N/A   Clear
6:15 PM 5.5 °F -9.3 °F -11.2 °F 46% 29.78 in 10.0 mi West 10.4 mph 17.3 mph N/A   Clear
6:35 PM 4.8 °F -7.1 °F -11.0 °F 48% 29.79 in 10.0 mi West 6.9 mph - N/A   Clear
6:55 PM 4.1 °F -8.0 °F -10.7 °F 51% 29.79 in 10.0 mi West 6.9 mph - N/A   Clear
7:15 PM 3.7 °F -8.4 °F -10.1 °F 53% 29.79 in 10.0 mi West 6.9 mph - N/A   Clear
7:35 PM 4.1 °F -10.2 °F -9.4 °F 54% 29.80 in 10.0 mi West 9.2 mph - N/A   Clear
7:55 PM 3.9 °F -9.4 °F -9.4 °F 54% 29.77 in 10.0 mi West 8.1 mph - N/A   Clear
8:15 PM 3.7 °F -7.1 °F -9.6 °F 54% 29.77 in 10.0 mi West 5.8 mph - N/A   Clear
9:15 PM 2.8 °F -4.6 °F -9.4 °F 57% 29.76 in 10.0 mi West 3.5 mph - N/A   Clear
9:35 PM 3.4 °F -4.0 °F -8.9 °F 57% 29.76 in 10.0 mi WSW 3.5 mph - N/A   Scattered Clouds
9:55 PM 3.9 °F -5.3 °F -8.7 °F 56% 29.75 in 10.0 mi WSW 4.6 mph - N/A   Overcast
10:15 PM 4.1 °F -5.1 °F -8.0 °F 57% 29.74 in 10.0 mi WSW 4.6 mph - N/A   Overcast
10:35 PM 4.1 °F -5.1 °F -7.6 °F 58% 29.72 in 10.0 mi SW 4.6 mph - N/A   Overcast
10:55 PM 4.1 °F - -7.4 °F 59% 29.70 in 10.0 mi Calm Calm - N/A   Overcast
11:15 PM 4.5 °F -2.7 °F -6.7 °F 60% 29.68 in 10.0 mi South 3.5 mph - N/A   Overcast
11:35 PM 4.6 °F -2.5 °F -6.2 °F 61% 29.66 in 10.0 mi SSW 3.5 mph - N/A   Overcast
11:55 PM 4.8 °F -2.3 °F -7.2 °F 58% 29.63 in 10.0 mi South 3.5 mph - N/A   Overcast